Wind_Speed
6 6 6 8 8 8 7 7 6 5 4 4 5 5 4 4 3 4 5 5 5 5 6 7 5 4 4 4
6 6 6 7 7 7 7 7 7 6 5 4 5 4 6 4 4 4 5 5 4 4 4 5 6 5 3 6
7 6 6 7 7 7 8 8 7 6 6 5 6 5 4 6 5 5 5 4 3 3 4 5 5 3 6 7
6 7 6 7 7 8 8 8 8 6 8 6 6 5 6 6 6 6 5 5 5 4 4 5 4 6 7 8
6 6 7 7 7 8 8 10 5 10 5 6 7 6 7 8 8 7 6 6 5 6 6 6 6 7 8 10
7 6 7 7 7 8 7 10 12 11 10 10 11 10 9 8 8 8 7 7 7 7 6 6 7 8 10 10
7 7 6 6 7 8 10 11 13 15 14 13 13 12 10 10 9 9 8 8 7 8 7 7 8 9 10 10
8 7 7 7 6 6 8 7 9 15 16 16 15 13 12 11 9 7 6 6 5 7 7 7 7 10 10 12
9 9 8 7 6 5 3 4 8 12 11 13 11 8 12 12 10 9 7 6 7 8 9 8 6 8 12 14
11 10 9 7 6 3 6 3 4 5 10 10 13 11 7 11 10 10 10 11 11 10 8 7 6 8 11 15
12 12 11 9 6 6 3 3 4 5 5 9 11 13 11 10 8 4 4 6 9 11 9 8 6 4 8 4
14 14 13 13 9 5 10 4 5 5 5 5 10 12 14 14 13 12 11 6 4 5 4 6 5 7 2 1
16 16 17 17 8 13 5 5 7 5 7 8 7 6 14 15 13 11 8 3 4 4 6 7 6 3 3 2
18 19 21 24 16 11 8 8 5 5 5 5 7 5 6 5 9 15 10 6 5 7 7 7 9 8 5 2
21 22 27 27 25 18 12 10 10 10 6 5 6 5 5 5 6 5 10 13 10 5 6 5 6 6 6 4
23 27 29 26 26 23 24 15 12 10 10 7 7 6 8 6 4 3 6 8 6 6 9 9 10 10 11 10
28 29 27 26 27 26 24 21 22 15 13 10 6 7 8 6 7 8 4 3 5 4 4 5 5 7 6 10
Wind_Direction
298 284 264 257 247 239 240 234 241 249 243 240 263 287 285 280 270 299 319 321 318 315 319 328 351 344 332 307
299 286 268 257 254 248 240 236 233 239 240 244 257 279 291 277 283 310 318 326 320 322 328 343 334 330 334 325
293 283 267 260 256 249 244 236 237 234 244 241 253 281 285 284 288 304 317 323 323 328 329 338 334 332 318 322
286 284 268 261 262 257 244 243 239 234 236 239 235 266 294 290 286 294 302 299 297 299 322 342 323 319 329 327
276 273 270 263 264 263 255 241 234 225 237 244 239 257 285 283 284 291 293 292 289 291 295 325 321 326 329 326
272 271 267 265 261 261 263 251 245 246 245 249 254 268 280 271 279 290 292 292 291 288 289 307 322 324 325 326
261 263 262 261 262 270 276 258 253 244 248 249 259 264 266 263 273 287 288 286 283 289 289 298 315 320 322 325
250 248 243 248 250 269 290 262 248 246 241 247 256 257 254 252 264 282 290 289 289 280 282 292 307 316 326 321
241 239 234 231 237 254 320 264 238 239 236 232 239 252 243 248 252 266 273 282 292 288 287 289 300 307 320 317
236 235 228 218 213 216 257 231 254 247 237 239 236 240 248 242 253 268 271 273 278 281 283 278 294 304 320 316
232 228 223 204 192 222 248 262 255 252 241 238 241 239 241 244 238 267 271 286 270 266 269 274 283 292 328 331
229 222 218 200 214 243 230 236 328 265 248 249 254 247 245 242 245 254 274 277 275 240 246 252 270 298 320 75
227 222 213 209 230 234 240 260 244 256 256 268 248 259 254 253 252 246 228 250 259 244 249 260 271 241 256 292
226 224 220 223 229 233 238 245 249 239 251 268 249 247 256 276 254 240 230 248 268 263 257 258 258 246 247 276
225 226 226 226 234 230 238 251 253 246 250 255 239 254 256 285 276 262 236 240 243 260 262 245 250 248 239 244
227 230 234 235 239 239 238 245 251 248 242 230 251 252 254 266 292 320 268 239 249 257 261 269 265 255 254 244
230 234 239 240 242 246 243 243 245 252 247 242 241 246 257 278 286 277 259 243 241 269 272 264 256 257 262 263
Height
3167 3168 3168 3169 3169 3170 3171 3171 3172 3173 3173 3175 3173 3175 3174 3174 3174 3174 3173 3173 3172 3172 3171 3170 3170 3170 3170 3169
3166 3166 3166 3167 3168 3169 3169 3170 3170 3171 3172 3172 3173 3173 3173 3173 3173 3172 3172 3172 3171 3171 3170 3170 3170 3169 3169 3168
3165 3165 3165 3165 3166 3167 3168 3169 3170 3170 3171 3171 3172 3172 3172 3172 3171 3171 3171 3171 3171 3170 3170 3170 3169 3169 3168 3167
3163 3164 3164 3164 3165 3166 3167 3168 3169 3171 3170 3171 3170 3171 3171 3171 3171 3170 3171 3171 3170 3169 3169 3169 3168 3167 3167 3165
3161 3161 3163 3163 3166 3166 3165 3166 3167 3167 3168 3169 3169 3170 3169 3169 3170 3170 3170 3169 3169 3168 3168 3168 3167 3166 3165 3164
3160 3160 3161 3161 3162 3164 3164 3164 3164 3166 3166 3167 3168 3168 3169 3169 3168 3168 3168 3169 3168 3167 3166 3166 3165 3164 3163 3162
3158 3159 3159 3161 3160 3161 3162 3162 3162 3162 3164 3165 3165 3166 3167 3166 3166 3167 3166 3166 3167 3166 3165 3165 3164 3163 3161 3160
3158 3157 3157 3158 3158 3160 3161 3160 3158 3159 3160 3161 3162 3163 3163 3166 3165 3165 3165 3165 3165 3164 3164 3163 3163 3161 3160 3158
3154 3155 3157 3156 3158 3159 3159 3158 3155 3156 3157 3160 3161 3160 3161 3162 3163 3164 3166 3165 3163 3163 3162 3162 3161 3161 3158 3157
3152 3154 3154 3155 3158 3161 3155 3153 3154 3154 3156 3157 3158 3158 3160 3161 3162 3162 3162 3162 3162 3161 3161 3160 3160 3159 3157 3154
3150 3151 3153 3155 3159 3155 3154 3154 3152 3153 3153 3155 3156 3157 3157 3158 3160 3161 3160 3159 3158 3159 3159 3159 3158 3157 3155 3154
3147 3149 3152 3155 3154 3151 3151 3151 3153 3152 3154 3154 3155 3155 3155 3155 3156 3158 3158 3158 3157 3156 3157 3157 3157 3156 3156 3154
3144 3146 3149 3152 3151 3150 3151 3151 3151 3152 3153 3153 3154 3153 3153 3153 3153 3154 3158 3156 3155 3155 3155 3155 3157 3155 3155 3155
3139 3142 3144 3145 3147 3150 3150 3150 3150 3150 3150 3151 3154 3152 3151 3152 3151 3152 3153 3154 3154 3153 3153 3154 3154 3154 3155 3153
3134 3136 3135 3139 3142 3145 3148 3150 3148 3148 3148 3149 3150 3151 3151 3152 3150 3150 3150 3151 3153 3154 3153 3151 3151 3152 3152 3152
3129 3127 3130 3135 3139 3141 3144 3146 3147 3147 3147 3146 3148 3149 3150 3150 3150 3150 3149 3150 3150 3150 3150 3149 3149 3149 3149 3150
3119 3122 3126 3129 3133 3137 3139 3141 3143 3144 3145 3146 3147 3146 3148 3149 3148 3148 3148 3149 3148 3147 3146 3149 3146 3146 3146 3147